Regional Weather Roundup
Issued by NWS

Home | Current Version | Previous Version | Graphics & Text | Print | Product List | Glossary Off
Versions: 1 2 3 4 5 6 7 8 9 10 11 12 13 14 15 16 17 18 19 20 21 22 23 24 25 26 27 28 29 30 31 32 33 34 35 36 37 38 39 40 41 42 43 44 45 46 47 48 49 50

000
ASUS43 KLMK 282302
RWRKY
KENTUCKY REGIONAL WEATHER ROUNDUP
NATIONAL WEATHER SERVICE LOUISVILLE KY
700 PM EDT TUE JUL 28 2015

NOTE "FAIR" INDICATES FEW OR NO CLOUDS BELOW 12,000 FEET
WITH NO SIGNIFICANT WEATHER AND/OR OBSTRUCTIONS TO VISIBILITY.

KYZ001>023-026-027-061>063-070>075-290000-
WESTERN AND SOUTH CENTRAL KENTUCKY

CITY           SKY/WX    TMP DP  RH WIND       PRES   REMARKS
PADUCAH        SUNNY     92  77  61 W12       29.91F HX 105
HENDERSON      MOSUNNY   84  73  70 W9G21     29.91R HX  91
OWENSBORO      MOSUNNY   90  81  74 S10       29.93R HX 109
HOPKINSVILLE   PTSUNNY   83  74  75 E9        29.93F HX  90
BOWLING GREEN  SUNNY     80  73  79 S6        29.95F
GLASGOW        NOT AVBL
$$

KYZ024-025-028>034-038-045-046-053-290000-
NORTH CENTRAL KENTUCKY

CITY           SKY/WX    TMP DP  RH WIND       PRES   REMARKS
LOUISVILLE/SDF PTSUNNY   87  69  54 W8        29.91F HX  91
LOUISVILLE/LOU PTSUNNY   87  71  58 SW5       29.92F HX  93
FORT KNOX      LGT RAIN  82  73  73 N3        29.92F
$$

KYZ035>037-039>044-047>052-055>060-089>105-290000-
NORTHEAST KENTUCKY

CITY           SKY/WX    TMP DP  RH WIND       PRES   REMARKS
LEXINGTON      PTSUNNY   80  70  71 CALM      29.95F
COVINGTON      MOSUNNY   90  71  53 N7        29.95F HX  96
FRANKFORT      MOSUNNY   81  73  76 CALM      29.93F
$$

KYZ054-064>069-076>088-106>120-290000-
SOUTHEAST KENTUCKY

CITY           SKY/WX    TMP DP  RH WIND       PRES   REMARKS
JACKSON        PTSUNNY   84  74  71 CALM      29.98F HX  91
LONDON         PTSUNNY   83  71  67 SE5       29.99F
SOMERSET       NOT AVBL
MIDDLESBORO    CLOUDY    80  74  84 CALM      30.00F
MONTICELLO     PTCLDY    85  75  71 SW6       29.98F HX  93
$$



USA.gov is the U.S. government's official web portal to all federal, state and local government web resources and services.